Weather History for Ramona, CA

Change the Weather History Date:

Saturday, January 11, 2014

  Actual Average Record
Temperature  
Mean Temperature 55 °F 50 °F  
Max Temperature 77 °F 66 °F 83 °F (2009)
Min Temperature 32 °F 35 °F 24 °F (2013)
Degree Days  
Heating Degree Days 10 15  
Month to date heating degree days 131 165  
Since 1 July heating degree days 971 1053  
Cooling Degree Days 0 0  
Month to date cooling degree days 0 0  
Year to date cooling degree days 0 0  
Growing Degree Days 5 (Base 50)    
Moisture  
Dew Point 32 °F    
Average Humidity 49    
Maximum Humidity 82    
Minimum Humidity 16    
Precipitation  
Precipitation 0.00 in 0.13 in 2.13 in (1980)
Month to date precipitation 0.00 1.41  
Year to date precipitation 0.00 1.41  
Since 1 July precipitation 2.76 6.12  
Snow  
Snow 0.00 in - - ()
Month to date snowfall 0.0  
Year to date snowfall 0.0  
Since 1 July snowfall 0.0  
Snow Depth 0.00 in    
Sea Level Pressure  
Sea Level Pressure 30.10 in    
Wind  
Wind Speed 2 mph (West)    
Max Wind Speed 13 mph    
Max Gust Speed 18 mph    
Visibility 9 miles    
Events      
T = Trace of Precipitation, MM = Missing Value Source: NWS Daily Summary

Daily Weather History Graph

Daily Weather History Graph

Search for Another Location

Airport:

Trip Planner

Search our weather history database for the weather conditions in past years. The results will help you decide how hot, cold, wet, or windy it might be!

Date:

Astronomy

Jan. 11, 2014 Rise Set
Actual Time 6:51 AM PST 5:00 PM PST
Civil Twilight 6:24 AM PST 5:27 PM PST
Nautical Twilight 5:53 AM PST 5:57 PM PST
Astronomical Twilight 5:24 AM PST 6:27 PM PST
Moon 1:45 PM PST (1/11) 3:02 AM PST (1/11)
Length of Visible Light 11h 02m
Length of Day
10h 08m
Waxing Gibbous, 84% of the Moon is Illuminated
Jan 11
Waxing Gibbous
Jan 15
Full
Jan 23
Last Quarter
Jan 30
New
Feb 6
First Quarter

Hourly Weather History & Observations

Time (PST) Temp. Windchill Dew Point Humidity Pressure Visibility Wind Dir Wind Speed Gust Speed Precip Events Conditions
12:53 AM 37.0 °F - 32.0 °F 82% 30.11 in 7.0 mi Calm Calm - N/A   Clear
1:53 AM 37.0 °F - 32.0 °F 82% 30.12 in 6.0 mi Calm Calm - N/A   Haze
2:53 AM 37.0 °F - 30.9 °F 79% 30.12 in 7.0 mi Calm Calm - N/A   Clear
3:53 AM 35.1 °F - 30.0 °F 82% 30.12 in 9.0 mi Calm Calm - N/A   Clear
4:53 AM 35.1 °F - 28.9 °F 78% 30.13 in 10.0 mi Calm Calm - N/A   Clear
5:53 AM 36.0 °F - 30.0 °F 79% 30.14 in 8.0 mi Calm Calm - N/A   Clear
6:53 AM 35.1 °F 32.2 °F 28.9 °F 78% 30.14 in 10.0 mi South 3.5 mph - N/A   Clear
7:53 AM 42.1 °F - 33.1 °F 70% 30.16 in 10.0 mi Calm Calm - N/A   Clear
8:53 AM 59.0 °F - 34.0 °F 39% 30.16 in 10.0 mi Calm Calm - N/A   Clear
9:53 AM 69.1 °F - 28.9 °F 22% 30.15 in 10.0 mi Calm Calm - N/A   Clear
10:53 AM 73.9 °F - 28.0 °F 18% 30.13 in 10.0 mi NW 5.8 mph - N/A   Clear
11:53 AM 75.9 °F - 26.1 °F 16% 30.10 in 10.0 mi Variable 4.6 mph - N/A   Clear
12:53 PM 75.0 °F - 32.0 °F 21% 30.06 in 10.0 mi West 6.9 mph - N/A   Clear
1:53 PM 75.0 °F - 34.0 °F 22% 30.04 in 10.0 mi WNW 11.5 mph - N/A   Clear
2:53 PM 71.1 °F - 35.1 °F 27% 30.05 in 10.0 mi West 10.4 mph - N/A   Clear
3:53 PM 69.1 °F - 37.9 °F 32% 30.06 in 10.0 mi West 9.2 mph - N/A   Clear
4:53 PM 60.1 °F - 36.0 °F 41% 30.06 in 10.0 mi WNW 5.8 mph - N/A   Clear
5:53 PM 55.9 °F - 37.0 °F 49% 30.08 in 10.0 mi Calm Calm - N/A   Clear
6:53 PM 48.9 °F - 34.0 °F 56% 30.09 in 10.0 mi Calm Calm - N/A   Clear
7:53 PM 46.9 °F - 35.1 °F 63% 30.09 in 10.0 mi Calm Calm - N/A   Clear
8:53 PM 42.1 °F - 30.9 °F 65% 30.08 in 10.0 mi Calm Calm - N/A   Clear
9:53 PM 41.0 °F - 32.0 °F 70% 30.08 in 10.0 mi Calm Calm - N/A   Clear
10:53 PM 37.9 °F - 30.0 °F 73% 30.08 in 8.0 mi Calm Calm - N/A   Clear
11:53 PM 39.9 °F - 32.0 °F 73% 30.07 in 5.0 mi Calm Calm - N/A   Haze